Terminal Aerodrome Forecast
Issued by NWS Greer, SC

Current Version | Previous Version | Text Only | Print | Product List | Glossary On
Versions: 1 2 3 4 5 6 7 8 9 10 11 12 13 14 15 16 17 18 19 20 21 22 23 24 25 26 27 28 29 30 31 32 33 34 35 36 37 38 39 40 41 42 43 44 45 46 47 48
000
FTUS42 KGSP 302334
TAFCLT
TAF
KCLT 302334Z 3100/3124 03005KT P6SM VCSH SCT060 SCT250
     FM310400 01004KT P6SM SCT060
     FM310800 01009KT P6SM FEW060 FEW250
     FM311800 02006KT P6SM FEW060=

USA.gov is the U.S. government's official web portal to all federal, state and local government web resources and services.